TimeNZDT,TemperatureF,Dew PointF,Humidity,Sea Level PressureIn,VisibilityMPH,Wind Direction,Wind SpeedMPH,Gust SpeedMPH,PrecipitationIn,Events,Conditions,WindDirDegrees,DateUTC
12:22 AM,-49.0,-9999,N/A,28.33,0.7,NNE,19.6,-,N/A,Snow,Ice Crystals,30,2012-10-25 11:22:00
12:50 AM,-49.0,-9999,N/A,28.34,0.7,NE,17.3,-,N/A,Snow,Ice Crystals,40,2012-10-25 11:50:00
1:00 AM,-49,,,,1,NE,17.3,,,Snow,Snow,40,2012-10-25 12:00:00
1:50 AM,-49.0,-9999,N/A,28.35,0.7,NE,16.1,-,N/A,Snow,Ice Crystals,40,2012-10-25 12:50:00
2:22 AM,-49.0,-9999,N/A,28.35,1.0,NE,16.1,-,N/A,Snow,Ice Crystals,40,2012-10-25 13:22:00
2:50 AM,-50.8,-9999,N/A,28.34,1.0,NNE,16.1,-,N/A,Snow,Ice Crystals,30,2012-10-25 13:50:00
3:50 AM,-50.8,-9999,N/A,28.35,1.0,NNE,18.4,-,N/A,Snow,Ice Crystals,30,2012-10-25 14:50:00
4:50 AM,-50.8,-9999,N/A,28.35,0.7,NNE,18.4,-,N/A,Snow,Ice Crystals,30,2012-10-25 15:50:00
5:50 AM,-50.8,-9999,N/A,28.36,1.0,NNE,18.4,26.5,N/A,Snow,Ice Crystals,30,2012-10-25 16:50:00
6:50 AM,-50.8,-9999,N/A,28.37,1.0,NNE,19.6,-,N/A,Snow,Ice Crystals,30,2012-10-25 17:50:00
7:00 AM,-51,,,,1,NNE,18.4,,,Snow,Snow,30,2012-10-25 18:00:00
7:50 AM,-50.8,-9999,N/A,28.38,1.0,NNE,16.1,-,N/A,Snow,Ice Crystals,30,2012-10-25 18:50:00
8:50 AM,-50.8,-9999,N/A,28.39,1.0,NNE,17.3,-,N/A,Snow,Ice Crystals,20,2012-10-25 19:50:00
9:50 AM,-50.8,-9999,N/A,28.39,1.0,NNE,17.3,-,N/A,Snow,Ice Crystals,20,2012-10-25 20:50:00
10:50 AM,-50.8,-9999,N/A,28.39,0.7,NNE,20.7,-,N/A,Snow,Ice Crystals,20,2012-10-25 21:50:00
11:50 AM,-50.8,-9999,N/A,28.40,0.7,NNE,20.7,-,N/A,Snow,Ice Crystals,30,2012-10-25 22:50:00
12:50 PM,-52.6,-9999,N/A,28.41,0.7,NNE,16.1,-,N/A,Snow,Ice Crystals,30,2012-10-25 23:50:00
1:00 PM,-52,,,,1,NNE,16.1,,,Snow,Snow,30,2012-10-26 00:00:00
6:50 PM,-49.0,-9999,N/A,28.44,1.0,NNE,20.7,26.5,N/A,Snow,Ice Crystals,20,2012-10-26 05:50:00
7:00 PM,-50,,,,1,NNE,20.7,,,Snow,Snow,20,2012-10-26 06:00:00
11:50 PM,-49.0,-9999,N/A,28.51,1.0,NNE,19.6,-,N/A,Snow,Ice Crystals,20,2012-10-26 10:50:00